Seldovia, AK

3:52 AM AKDT on March 24, 2017 (GMT -0800)
Seldovia

Weather History for PASO - September, 2013

Change the Weather History Date:

Thursday, September 12, 2013

  Actual Average (PAHO) Record (PAHO)
Temperature  
Mean Temperature 49 °F -  
Max Temperature 55 °F 56 °F 66 °F (1997)
Min Temperature 44 °F 42 °F 32 °F (1952)
Degree Days  
Heating Degree Days 16    
Moisture  
Dew Point 46 °F    
Average Humidity 87    
Maximum Humidity 96    
Minimum Humidity 74    
Precipitation  
Precipitation 0.11 in - - ()
Sea Level Pressure  
Sea Level Pressure 29.91 in    
Wind  
Wind Speed 1 mph (SW)    
Max Wind Speed 6 mph    
Max Gust Speed -    
Visibility 9 miles    
Events Rain    
Averages and records for this station are not official NWS values.
T = Trace of Precipitation, MM = Missing Value Source: NWS Daily Summary

Daily Weather History Graph

Daily Weather History Graph

Search for Another Location

Airport or City:

Trip Planner

Search our weather history database for the weather conditions in past years. The results will help you decide how hot, cold, wet, or windy it might be!

Date:

Astronomy

Sep. 12, 2013 Rise Set
Actual Time 7:29 AM AKDT 8:34 PM AKDT
Civil Twilight 6:47 AM AKDT 9:16 PM AKDT
Nautical Twilight 5:55 AM AKDT 10:08 PM AKDT
Astronomical Twilight 4:56 AM AKDT 11:06 PM AKDT
Moon 4:45 PM AKDT (9/12) No Moon Set
Length of Visible Light 14h 29m
Length of Day
13h 05m
First Quarter, 51% of the Moon is Illuminated
Sep 12
First Quarter
Sep 19
Full
Sep 26
Last Quarter
Oct 4
New
Oct 11
First Quarter

Hourly Weather History & Observations

Time (AKDT) Temp. Dew Point Humidity Pressure Visibility Wind Dir Wind Speed Gust Speed Precip Events Conditions
1:53 AM 44.1 °F 42.1 °F 93% 29.91 in 10.0 mi Calm Calm - N/A   Mostly Cloudy
2:53 AM 44.1 °F 42.1 °F 93% 29.92 in 10.0 mi Calm Calm - N/A   Mostly Cloudy
3:53 AM 44.1 °F 42.1 °F 93% 29.93 in 10.0 mi Calm Calm - N/A   Clear
4:53 AM 48.0 °F 45.0 °F 89% 29.93 in 10.0 mi Calm Calm - N/A   Overcast
5:53 AM 50.0 °F 42.1 °F 74% 29.95 in 10.0 mi South 5.8 mph - N/A   Mostly Cloudy
6:53 AM 48.0 °F 45.0 °F 89% 29.95 in 10.0 mi Calm Calm - N/A   Overcast
7:53 AM 48.0 °F 45.0 °F 89% 29.94 in 10.0 mi Calm Calm - N/A   Overcast
8:53 AM 48.9 °F 45.0 °F 86% 29.95 in 10.0 mi South 3.5 mph - N/A   Overcast
9:53 AM 50.0 °F 45.0 °F 83% 29.96 in 9.0 mi Calm Calm - 0.00 in Rain Light Rain
10:53 AM 51.1 °F 46.9 °F 86% 29.96 in 10.0 mi Calm Calm - 0.00 in   Overcast
11:53 AM 51.1 °F 46.9 °F 86% 29.96 in 10.0 mi Calm Calm - 0.00 in   Overcast
12:53 PM 52.0 °F 46.9 °F 83% 29.95 in 10.0 mi Variable 3.5 mph - N/A   Overcast
1:53 PM 54.0 °F 46.0 °F 75% 29.94 in 10.0 mi South 5.8 mph - N/A   Overcast
2:53 PM 53.1 °F 46.9 °F 80% 29.93 in 10.0 mi Variable 3.5 mph - N/A   Overcast
3:53 PM 54.0 °F 48.9 °F 83% 29.91 in 10.0 mi Calm Calm - 0.00 in   Overcast
4:53 PM 53.1 °F 48.9 °F 86% 29.89 in 10.0 mi Calm Calm - 0.00 in Rain Light Rain
5:53 PM 53.1 °F 48.9 °F 86% 29.88 in 10.0 mi Calm Calm - 0.01 in   Overcast
6:53 PM 52.0 °F 48.0 °F 86% 29.86 in 10.0 mi WNW 3.5 mph - N/A   Overcast
7:53 PM 52.0 °F 48.9 °F 89% 29.84 in 10.0 mi NW 3.5 mph - 0.00 in Rain Light Rain
8:53 PM 51.1 °F 48.9 °F 92% 29.83 in 9.0 mi Calm Calm - 0.02 in Rain Light Rain
9:53 PM 50.0 °F 48.9 °F 96% 29.83 in 5.0 mi Calm Calm - 0.03 in Rain Rain
10:53 PM 50.0 °F 48.9 °F 96% 29.83 in 9.0 mi Calm Calm - 0.01 in Rain Light Rain
11:53 PM 50.0 °F 48.9 °F 96% 29.83 in 5.0 mi Calm Calm - 0.04 in Rain Light Rain